When you browse on this site, cookies collect data to enhance your experience and personalize the content and advertising you see.
Visit our Privacy Policy to learn more. By continuing to use the site, you agree to this use of cookies and data.
  • In Schweiz
  • Länderverzeichnis
  • Für 7 Tage
  • Wassertemperatur
  • Wetterkarte
  • Widgets
  • user-avatar
    Anmelden

    Stündliche Wetter Pinsk

    Heute, 22 Oktober, Dienstag

    Zeit Temperatur Niederschläge Wind Luftdruck Luftfeuchtigkeit
    00:00 +14°C° 0 mm 1 m/S 754 mmHg 87%
    01:00 +12°C° 0 mm 0 m/S 754 mmHg 87%
    02:00 +12°C° 0 mm 0 m/S 754 mmHg 88%
    03:00 +12°C° 0 mm 0 m/S 754 mmHg 88%
    04:00 +12°C° 0 mm 0 m/S 754 mmHg 88%
    05:00 +11°C° 0 mm 0 m/S 754 mmHg 88%
    06:00 +12°C° 0 mm 0 m/S 754 mmHg 88%
    07:00 +12°C° 0 mm 0 m/S 754 mmHg 87%
    08:00 +13°C° 0 mm 1 m/S 754 mmHg 86%
    09:00 +15°C° 0 mm 1 m/S 755 mmHg 80%
    10:00 +18°C° 0 mm 1 m/S 755 mmHg 73%
    11:00 +19°C° 0 mm 1 m/S 755 mmHg 66%
    12:00 +20°C° 0 mm 1 m/S 755 mmHg 63%
    13:00 +21°C° 0 mm 1 m/S 755 mmHg 60%
    14:00 +22°C° 0 mm 1 m/S 754 mmHg 57%
    15:00 +20°C° 0 mm 1 m/S 754 mmHg 62%
    16:00 +17°C° 0 mm 0 m/S 754 mmHg 68%
    17:00 +15°C° 0 mm 0 m/S 753 mmHg 73%
    18:00 +15°C° 0 mm 0 m/S 754 mmHg 76%
    19:00 +14°C° 0 mm 0 m/S 754 mmHg 78%
    20:00 +15°C° 0 mm 1 m/S 754 mmHg 81%
    21:00 +14°C° 0 mm 1 m/S 754 mmHg 82%
    22:00 +14°C° 0 mm 1 m/S 753 mmHg 84%
    23:00 +14°C° 0 mm 1 m/S 753 mmHg 85%

    Morgen, 23 Oktober, Mittwoch

    Zeit Temperatur Niederschläge Wind Luftdruck Luftfeuchtigkeit
    00:00 +14°C° 0 mm 1 m/S 753 mmHg 86%
    01:00 +13°C° 0 mm 1 m/S 753 mmHg 88%
    02:00 +13°C° 0 mm 2 m/S 753 mmHg 89%
    03:00 +13°C° 0 mm 2 m/S 753 mmHg 90%
    04:00 +13°C° 0 mm 2 m/S 753 mmHg 91%
    05:00 +12°C° 0 mm 2 m/S 752 mmHg 92%
    06:00 +12°C° 0 mm 2 m/S 752 mmHg 92%
    07:00 +12°C° 0 mm 2 m/S 753 mmHg 92%
    08:00 +13°C° 0 mm 2 m/S 753 mmHg 92%
    09:00 +14°C° 0 mm 2 m/S 753 mmHg 86%
    10:00 +16°C° 0 mm 2 m/S 753 mmHg 79%
    11:00 +17°C° 0 mm 2 m/S 753 mmHg 72%
    12:00 +18°C° 0 mm 2 m/S 753 mmHg 70%
    13:00 +19°C° 0 mm 2 m/S 753 mmHg 68%
    14:00 +19°C° 0 mm 3 m/S 753 mmHg 66%
    15:00 +18°C° 0 mm 2 m/S 753 mmHg 72%
    16:00 +17°C° 0 mm 2 m/S 753 mmHg 78%
    17:00 +16°C° 0 mm 2 m/S 752 mmHg 84%
    18:00 +15°C° 0 mm 2 m/S 753 mmHg 87%
    19:00 +14°C° 0 mm 2 m/S 753 mmHg 90%
    20:00 +13°C° 0 mm 2 m/S 753 mmHg 93%
    21:00 +13°C° 0 mm 2 m/S 753 mmHg 93%
    22:00 +12°C° 0 mm 2 m/S 753 mmHg 94%
    23:00 +12°C° 0 mm 2 m/S 753 mmHg 94%

    übermorgen, 24 Oktober, Donnerstag

    Zeit Temperatur Niederschläge Wind Luftdruck Luftfeuchtigkeit
    00:00 +10°C° 0 mm 2 m/S 754 mmHg 94%
    01:00 +10°C° 0 mm 2 m/S 754 mmHg 94%
    02:00 +9°C° 0 mm 2 m/S 754 mmHg 94%
    03:00 +9°C° 0 mm 2 m/S 754 mmHg 94%
    04:00 +9°C° 0 mm 2 m/S 753 mmHg 95%
    05:00 +8°C° 0 mm 2 m/S 753 mmHg 95%
    06:00 +8°C° 0 mm 2 m/S 753 mmHg 94%
    07:00 +9°C° 0 mm 2 m/S 753 mmHg 94%
    08:00 +9°C° 0 mm 2 m/S 753 mmHg 94%
    09:00 +12°C° 0 mm 2 m/S 753 mmHg 88%
    10:00 +13°C° 0 mm 2 m/S 753 mmHg 82%
    11:00 +14°C° 0 mm 3 m/S 753 mmHg 76%
    12:00 +16°C° 0 mm 3 m/S 753 mmHg 73%
    13:00 +17°C° 0 mm 3 m/S 753 mmHg 71%
    14:00 +18°C° 0 mm 3 m/S 752 mmHg 68%
    15:00 +17°C° 0 mm 3 m/S 752 mmHg 73%
    16:00 +16°C° 0 mm 3 m/S 752 mmHg 78%
    17:00 +14°C° 0 mm 3 m/S 751 mmHg 83%
    18:00 +13°C° 0 mm 3 m/S 752 mmHg 85%
    19:00 +13°C° 0 mm 3 m/S 752 mmHg 87%
    20:00 +12°C° 0 mm 4 m/S 752 mmHg 88%
    21:00 +12°C° 0 mm 4 m/S 752 mmHg 89%
    22:00 +12°C° 0 mm 3 m/S 752 mmHg 91%
    23:00 +12°C° 0 mm 3 m/S 752 mmHg 92%

    25 Oktober, Freitag

    Zeit Temperatur Niederschläge Wind Luftdruck Luftfeuchtigkeit
    00:00 +12°C° 0 mm 3 m/S 752 mmHg 92%
    01:00 +11°C° 0 mm 3 m/S 752 mmHg 93%
    02:00 +11°C° 0 mm 3 m/S 752 mmHg 93%
    03:00 +11°C° 0 mm 3 m/S 751 mmHg 93%
    04:00 +11°C° 0 mm 3 m/S 751 mmHg 93%
    05:00 +11°C° 0 mm 3 m/S 751 mmHg 93%
    06:00 +11°C° 0 mm 3 m/S 751 mmHg 91%
    07:00 +11°C° 0 mm 3 m/S 751 mmHg 90%
    08:00 +11°C° 0 mm 3 m/S 751 mmHg 89%
    09:00 +13°C° 0 mm 3 m/S 751 mmHg 80%
    10:00 +16°C° 0 mm 3 m/S 751 mmHg 71%
    11:00 +17°C° 0 mm 3 m/S 752 mmHg 62%
    12:00 +18°C° 0 mm 3 m/S 751 mmHg 60%
    13:00 +19°C° 0 mm 3 m/S 751 mmHg 58%
    14:00 +20°C° 0 mm 3 m/S 751 mmHg 55%
    15:00 +19°C° 0 mm 3 m/S 751 mmHg 60%
    16:00 +17°C° 0 mm 3 m/S 751 mmHg 66%
    17:00 +16°C° 0 mm 2 m/S 751 mmHg 71%
    18:00 +15°C° 0 mm 2 m/S 751 mmHg 73%
    19:00 +15°C° 0 mm 2 m/S 751 mmHg 76%
    20:00 +14°C° 0 mm 2 m/S 752 mmHg 78%
    21:00 +14°C° 0 mm 2 m/S 752 mmHg 81%
    22:00 +13°C° 0 mm 2 m/S 752 mmHg 83%
    23:00 +13°C° 0 mm 2 m/S 752 mmHg 85%

    26 Oktober, Samstag

    Zeit Temperatur Niederschläge Wind Luftdruck Luftfeuchtigkeit
    00:00 +12°C° 0 mm 2 m/S 752 mmHg 87%
    01:00 +12°C° 0 mm 1 m/S 752 mmHg 89%
    02:00 +12°C° 0 mm 1 m/S 752 mmHg 91%
    03:00 +11°C° 0 mm 1 m/S 752 mmHg 92%
    04:00 +10°C° 0 mm 0 m/S 752 mmHg 92%
    05:00 +10°C° 0 mm 0 m/S 752 mmHg 93%
    06:00 +10°C° 0 mm 0 m/S 752 mmHg 93%
    07:00 +11°C° 0 mm 1 m/S 752 mmHg 94%
    08:00 +11°C° 0 mm 1 m/S 752 mmHg 94%
    09:00 +13°C° 0 mm 1 m/S 752 mmHg 87%
    10:00 +15°C° 0 mm 2 m/S 752 mmHg 80%
    11:00 +17°C° 0 mm 2 m/S 752 mmHg 72%
    12:00 +18°C° 0 mm 2 m/S 751 mmHg 69%
    13:00 +18°C° 0 mm 3 m/S 751 mmHg 66%
    14:00 +19°C° 0 mm 3 m/S 750 mmHg 62%
    15:00 +18°C° 0 mm 3 m/S 750 mmHg 67%
    16:00 +17°C° 0 mm 3 m/S 749 mmHg 71%
    17:00 +16°C° 0 mm 2 m/S 749 mmHg 75%
    18:00 +14°C° 0 mm 3 m/S 749 mmHg 78%
    19:00 +13°C° 0 mm 3 m/S 749 mmHg 80%
    20:00 +13°C° 0 mm 3 m/S 749 mmHg 82%
    21:00 +12°C° 0 mm 3 m/S 748 mmHg 82%
    22:00 +12°C° 0 mm 3 m/S 748 mmHg 83%
    23:00 +12°C° 0 mm 3 m/S 748 mmHg 83%

    27 Oktober, Sonntag

    Zeit Temperatur Niederschläge Wind Luftdruck Luftfeuchtigkeit
    00:00 +12°C° 0 mm 3 m/S 748 mmHg 85%
    01:00 +11°C° 0 mm 3 m/S 748 mmHg 87%
    02:00 +11°C° 0 mm 3 m/S 748 mmHg 89%
    03:00 +11°C° 0 mm 3 m/S 747 mmHg 90%
    04:00 +11°C° 0 mm 3 m/S 747 mmHg 91%
    05:00 +11°C° 0 mm 4 m/S 747 mmHg 92%
    06:00 +11°C° 0 mm 4 m/S 747 mmHg 91%
    07:00 +12°C° 0 mm 4 m/S 747 mmHg 89%
    08:00 +12°C° 0 mm 5 m/S 746 mmHg 87%
    09:00 +11°C° 0.1 mm 6 m/S 747 mmHg 85%
    10:00 +13°C° 0.1 mm 6 m/S 747 mmHg 82%
    11:00 +12°C° 0.1 mm 7 m/S 747 mmHg 79%
    12:00 +11°C° 0.1 mm 7 m/S 748 mmHg 74%
    13:00 +10°C° 0.1 mm 7 m/S 748 mmHg 69%
    14:00 +9°C° 0.1 mm 6 m/S 749 mmHg 63%
    15:00 +9°C° 0 mm 6 m/S 749 mmHg 62%
    16:00 +8°C° 0 mm 5 m/S 749 mmHg 60%
    17:00 +7°C° 0 mm 4 m/S 749 mmHg 58%
    18:00 +7°C° 0 mm 4 m/S 750 mmHg 59%
    19:00 +6°C° 0 mm 4 m/S 750 mmHg 60%
    20:00 +5°C° 0 mm 4 m/S 750 mmHg 61%
    21:00 +5°C° 0 mm 4 m/S 750 mmHg 63%
    22:00 +5°C° 0 mm 5 m/S 750 mmHg 64%
    23:00 +5°C° 0 mm 5 m/S 750 mmHg 66%
    Mehr zeigen